[[{"header":{"parameterUnit":"m.s-1","parameterCategory":1,"la1":30.2991,"la2":30.254,"lo1":-89.0895,"lo2":-89.0444,"dy":0.0017,"dx":0.0017,"nx":28,"ny":28,"refTime":"2025-07-13T21:00:00:Z","depth":0,"parameterNumber":2,"parameterNumberName":"U-component_of_WINDS"},"data":[0,0,0,0,0,0,0,0,0,0,0,0,0,0,0,0,0,0,0,0,0,0,0,0,0,0,0,0,0,0,0,0,0,0,0,0,0,0,0,0,0,0,0,0,0,0,0,0,0,0,0,0,0,0,0,0,0,0,1.6658,1.6659,0,1.6775,1.6777,1.6778,1.6808,1.6807,1.6807,1.6806,1.6929,1.6932,1.6936,0,0,0,0,0,0,0,0,0,0,0,0,0,1.646,1.6464,1.6658,1.6659,1.6661,1.6775,1.6777,1.6778,1.6808,1.6807,1.6807,1.6806,1.6927,1.6932,1.6937,0,0,0,0,0,0,0,0,0,0,0,0,0,1.6559,1.6465,1.6658,1.6689,1.6693,1.6775,1.6777,1.6779,1.6809,1.6807,1.6806,1.6805,1.6926,1.6931,1.6937,1.6996,0,0,1.6955,1.6958,0,0,0,0,0,0,0,0,1.6553,1.6566,1.6683,1.6687,1.6692,1.6776,1.6752,1.6852,1.6809,1.6765,1.6806,1.6805,1.6879,1.6889,1.6913,1.7002,1.7007,1.6956,1.696,1.6962,1.6964,0,0,0,0,0,0,0,1.6546,1.6561,1.6704,1.6685,1.669,1.6698,1.6711,1.6771,1.6827,1.6769,1.6771,1.6785,1.6881,1.6907,1.6916,1.7009,1.6956,1.6961,1.6965,1.6967,1.7151,1.7152,0,0,0,0,0,0,1.6534,1.6555,1.6701,1.6708,1.6618,1.6703,1.6717,1.675,1.6826,1.6837,1.6785,1.6785,1.6898,1.6909,1.6921,1.6993,1.6962,1.6968,1.6971,1.7149,1.7151,1.7152,0,0,0,0,0,0,1.6529,1.6546,1.6696,1.6632,1.6652,1.6707,1.6744,1.6753,1.6779,1.6839,1.6849,1.6802,1.6897,1.6912,1.6977,1.6998,1.697,1.6976,1.7148,1.715,1.7152,1.714,0,0,0,0,0,0,1.6524,1.6545,1.6567,1.6633,1.6655,1.675,1.6746,1.6756,1.6789,1.6791,1.6857,1.6867,1.6898,1.6968,1.6982,1.7006,1.698,1.7146,1.7149,1.7151,1.7139,1.7141,1.7143,0,0,0,0,0,1.6516,1.656,1.6568,1.6586,1.6685,1.6751,1.6764,1.6798,1.6791,1.6814,1.6852,1.6865,1.6993,1.6974,1.6991,1.7016,1.7145,1.7148,1.7151,1.7137,1.7141,1.7143,0,0,0,0,0,0,1.6497,1.6569,1.6579,1.6645,1.6691,1.6756,1.6786,1.68,1.685,1.6849,1.689,1.6904,1.6966,1.6998,1.6975,1.7077,1.7069,1.7076,1.7053,1.7057,1.7059,1.705,1.6985,0,0,0,0,0,1.65,1.6547,1.6608,1.6661,1.6683,1.6731,1.6761,1.6783,1.6832,1.6852,1.6895,1.6944,1.6995,1.7028,1.7078,1.7144,1.7158,1.7169,1.7172,1.7173,1.7178,1.7214,1.722,1.7162,1.7162,1.7162,0,0,1.6508,1.6553,1.6581,1.6658,1.6696,1.6744,1.6747,1.6798,1.6834,1.6861,1.6923,1.6956,1.7013,1.7078,1.7108,1.7106,1.7198,1.7177,1.7178,1.7182,1.7218,1.7223,1.7228,1.7164,1.7164,1.7163,0,0,1.6545,1.6585,1.6632,1.667,1.6728,1.6759,1.677,1.6832,1.6855,1.6918,1.6939,1.6983,1.707,1.7109,1.7141,1.7192,1.7206,1.7208,1.722,1.7255,1.7259,1.7263,1.7281,1.7287,1.7213,1.7213,1.7213,0,1.6547,1.662,1.6655,1.6705,1.6738,1.6763,1.6811,1.6847,1.6918,1.694,1.6937,1.7046,1.7087,1.716,1.7172,1.7197,1.7211,1.72,1.7256,1.726,1.7265,1.7282,1.7288,1.7213,1.7213,1.7213,1.7213,0,1.6619,1.6669,1.6701,1.6768,1.6805,1.6854,1.6895,1.6929,1.6947,1.6979,1.7043,1.7091,1.7152,1.7171,1.719,1.7247,1.7244,1.7248,1.7241,1.7269,1.7286,1.7293,1.7212,1.7212,1.7212,1.7212,0,0,1.6648,1.6733,1.6744,1.6774,1.6839,1.6879,1.6929,1.6987,1.7014,1.7062,1.7105,1.7178,1.7181,1.7217,1.7241,1.7271,1.7307,1.7271,1.7273,1.7275,1.7372,1.7368,1.7375,1.7316,1.7318,1.7319,1.7367,0,1.6693,1.6782,1.6814,1.6887,1.6933,1.6958,1.7001,1.7046,1.7076,1.712,1.7154,1.7205,1.7206,1.7228,1.7259,1.7296,1.7327,1.7293,1.7356,1.7358,1.734,1.7384,1.738,1.7422,1.7373,1.7375,1.7375,0,1.6758,1.6806,1.6883,1.6941,1.6962,1.7,1.7055,1.7097,1.7148,1.7168,1.7207,1.7228,1.7281,1.7272,1.7345,1.7321,1.7349,1.7371,1.7373,1.738,1.7368,1.739,1.7437,1.7443,1.7386,1.7385,1.7385,0,1.6769,1.6854,1.691,1.6936,1.7005,1.7031,1.7062,1.7112,1.7144,1.7193,1.7214,1.7269,1.7298,1.734,1.7375,1.7365,1.7445,1.7438,1.7463,1.7462,1.7478,1.7476,1.7529,1.7497,1.7497,1.7497,1.7497,0,1.6816,1.6862,1.6916,1.6951,1.7003,1.704,1.7091,1.7123,1.7167,1.7208,1.7233,1.7272,1.7317,1.7361,1.739,1.7445,1.7459,1.7476,1.7483,1.7474,1.7471,1.7492,1.7489,1.7499,1.7498,1.7498,1.7498,0,1.6838,1.6876,1.6939,1.7,1.7016,1.7052,1.7104,1.7138,1.717,1.7222,1.7236,1.7286,1.7339,1.7379,1.7448,1.7467,1.7526,1.7534,1.7509,1.7512,1.7534,1.7531,1.76,1.7611,1.7573,1.7573,1.7574,0,1.6864,1.69,1.6964,1.6993,1.7023,1.707,1.7103,1.714,1.7173,1.7234,1.7261,1.7316,1.7362,1.7446,1.7488,1.7542,1.755,1.7571,1.7558,1.7547,1.7549,1.7546,1.755,1.7572,1.7572,1.7573,1.7573,0,1.6907,1.6924,1.697,1.7022,1.7061,1.7104,1.7148,1.717,1.7216,1.7252,1.7306,1.7342,1.7412,1.7466,1.7523,1.7555,1.7571,1.7576,1.7585,1.7575,1.7558,1.7566,1.7512,1.7575,1.7574,1.7574,1.7574,1.7574,1.6931,1.6964,1.7013,1.7064,1.71,1.714,1.7176,1.7211,1.7257,1.7316,1.7336,1.7391,1.7441,1.7519,1.7552,1.7596,1.7596,1.7608,1.7611,1.7614,1.7612,1.7552,1.7607,1.7607,1.7607,1.7607,1.7607,0,1.6974,1.7007,1.7053,1.7113,1.7152,1.7164,1.7213,1.7245,1.7293,1.7338,1.7382,1.7444,1.7497,1.7543,1.7597,1.7624,1.7633,1.7637,1.7635,1.7642,1.761,1.7597,1.7629,1.7629,1.7629,1.7628,1.7628,1.7628,1.7001,1.7056,1.7079,1.7152,1.7185,1.7239,1.7266,1.7303,1.7339,1.7407,1.745,1.7479,1.7525,1.7582,1.7631,1.7643,1.7661,1.7663,1.7677,1.7647,1.7644,1.7641,1.7629,1.7667,1.7667,1.7706,1.7706,1.7706]},{"header":{"parameterUnit":"m.s-1","parameterCategory":1,"la1":30.2991,"la2":30.254,"lo1":-89.0895,"lo2":-89.0444,"dy":0.0017,"dx":0.0017,"nx":28,"ny":28,"refTime":"2025-07-13T21:00:00:Z","depth":0,"parameterNumber":3,"parameterNumberName":"V-component_of_WINDS"},"data":[0,0,0,0,0,0,0,0,0,0,0,0,0,0,0,0,0,0,0,0,0,0,0,0,0,0,0,0,0,0,0,0,0,0,0,0,0,0,0,0,0,0,0,0,0,0,0,0,0,0,0,0,0,0,0,0,0,0,5.287,5.287,0,5.2853,5.2853,5.2853,5.2797,5.2796,5.2795,5.2794,5.2777,5.2778,5.2779,0,0,0,0,0,0,0,0,0,0,0,0,0,5.2855,5.2856,5.287,5.287,5.287,5.2853,5.2853,5.2853,5.2798,5.2796,5.2794,5.2793,5.2777,5.2778,5.2779,0,0,0,0,0,0,0,0,0,0,0,0,0,5.2852,5.2856,5.287,5.284,5.2837,5.2854,5.2853,5.2853,5.2798,5.2796,5.2794,5.2792,5.2777,5.2778,5.2779,5.2823,0,0,5.2782,5.2783,0,0,0,0,0,0,0,0,5.2853,5.2853,5.2845,5.2842,5.2839,5.2825,5.2842,5.2843,5.2798,5.2813,5.2794,5.2791,5.2795,5.2794,5.2795,5.2822,5.2822,5.2782,5.2783,5.2783,5.2784,0,0,0,0,0,0,0,5.2853,5.2853,5.2863,5.2845,5.2841,5.2828,5.2825,5.2842,5.2815,5.2811,5.2807,5.2806,5.2793,5.2794,5.2795,5.2821,5.2782,5.2783,5.2784,5.2784,5.2885,5.2887,0,0,0,0,0,0,5.2857,5.2854,5.2864,5.2863,5.2841,5.283,5.2827,5.2832,5.2814,5.281,5.2808,5.2804,5.2794,5.2793,5.2794,5.2844,5.2783,5.2784,5.2785,5.2883,5.2885,5.2887,0,0,0,0,0,0,5.2857,5.2859,5.2865,5.2857,5.2857,5.2832,5.2838,5.2832,5.2834,5.2811,5.2806,5.2814,5.2792,5.2792,5.2816,5.2843,5.2785,5.2786,5.288,5.2883,5.2886,5.2946,0,0,0,0,0,0,5.2857,5.2859,5.2875,5.2858,5.2858,5.2887,5.2839,5.2833,5.2836,5.283,5.2816,5.2812,5.2791,5.2815,5.2817,5.2843,5.2787,5.2878,5.2882,5.2885,5.2942,5.2951,5.2959,0,0,0,0,0,5.2857,5.2893,5.2876,5.2878,5.2877,5.2889,5.2889,5.2863,5.2838,5.2854,5.284,5.2812,5.284,5.2818,5.282,5.2847,5.2876,5.2881,5.2885,5.2938,5.2949,5.2959,0,0,0,0,0,0,5.2913,5.289,5.2871,5.2903,5.2898,5.2879,5.2899,5.2876,5.2878,5.2873,5.2841,5.2839,5.2867,5.286,5.2835,5.2889,5.2853,5.2859,5.2893,5.2903,5.2912,5.2912,5.2788,0,0,0,0,0,5.293,5.2941,5.292,5.295,5.2948,5.2924,5.2928,5.2909,5.2903,5.2901,5.2888,5.2884,5.2892,5.2897,5.2903,5.2941,5.2937,5.2961,5.2969,5.2976,5.2981,5.3,5.301,5.2902,5.2902,5.2902,0,0,5.2963,5.2952,5.296,5.2961,5.2955,5.2967,5.2923,5.2938,5.2947,5.2903,5.2925,5.2916,5.2909,5.294,5.2953,5.2935,5.301,5.2982,5.2988,5.2988,5.3006,5.3016,5.3025,5.2905,5.2905,5.2904,0,0,5.303,5.3023,5.3047,5.3042,5.3034,5.3018,5.3024,5.3009,5.3001,5.3023,5.2991,5.3001,5.3015,5.3011,5.3011,5.3079,5.3054,5.3082,5.3126,5.3146,5.3154,5.3161,5.3185,5.3194,5.3087,5.3087,5.3087,0,5.3072,5.3089,5.3062,5.3079,5.3081,5.3042,5.3067,5.3064,5.3058,5.306,5.304,5.3056,5.3049,5.3079,5.3096,5.3097,5.3103,5.3083,5.3155,5.3162,5.3169,5.3191,5.32,5.309,5.309,5.309,5.3089,0,5.3142,5.3155,5.3175,5.3171,5.3175,5.3196,5.3172,5.3179,5.316,5.3147,5.317,5.316,5.3163,5.3169,5.3151,5.3197,5.3185,5.3161,5.3124,5.3183,5.3203,5.3212,5.3095,5.3094,5.3093,5.3092,0,0,5.3242,5.3224,5.3232,5.3229,5.3219,5.3228,5.3248,5.3251,5.3258,5.3256,5.3271,5.3285,5.3262,5.3262,5.3243,5.3261,5.3315,5.3233,5.3233,5.3248,5.3365,5.3383,5.3393,5.3298,5.33,5.3301,5.3365,0,5.3306,5.3337,5.3314,5.335,5.3361,5.3326,5.3343,5.3339,5.3327,5.3336,5.3323,5.3333,5.3302,5.3302,5.3318,5.3305,5.3337,5.33,5.3312,5.3313,5.3314,5.3404,5.3422,5.3483,5.3373,5.3374,5.3375,0,5.3383,5.3384,5.3422,5.3409,5.3413,5.3429,5.343,5.3439,5.3433,5.3424,5.3425,5.3402,5.3421,5.3386,5.3411,5.3386,5.339,5.3385,5.3387,5.3386,5.3347,5.3405,5.3502,5.3511,5.3388,5.3387,5.3386,0,5.3452,5.3463,5.3487,5.3487,5.3472,5.3484,5.3479,5.3472,5.3476,5.3478,5.348,5.3484,5.3486,5.349,5.3469,5.3445,5.3497,5.346,5.349,5.349,5.3501,5.35,5.36,5.3506,5.3506,5.3505,5.3505,0,5.3524,5.3548,5.3518,5.3532,5.3559,5.3532,5.3559,5.355,5.3545,5.3557,5.3527,5.354,5.3512,5.3522,5.3506,5.3529,5.3531,5.3523,5.3519,5.3525,5.3526,5.3527,5.3522,5.3508,5.3507,5.3507,5.3506,0,5.3604,5.3585,5.3609,5.3594,5.3591,5.3611,5.3599,5.3612,5.3599,5.3615,5.3618,5.3597,5.3607,5.3587,5.3595,5.3584,5.3617,5.3606,5.3619,5.3615,5.3646,5.3643,5.3748,5.376,5.3659,5.366,5.3661,0,5.3651,5.3669,5.3656,5.3663,5.3659,5.367,5.3673,5.3649,5.3654,5.365,5.3664,5.3672,5.3676,5.3695,5.3681,5.3686,5.3675,5.3711,5.3675,5.3682,5.3675,5.3673,5.3675,5.3718,5.372,5.3721,5.3721,0,5.3736,5.3726,5.3732,5.3736,5.3742,5.3744,5.3743,5.375,5.3724,5.3732,5.3742,5.3746,5.3754,5.3762,5.3765,5.376,5.3736,5.3733,5.374,5.3747,5.3753,5.3749,5.3638,5.373,5.3729,5.3729,5.3728,5.3728,5.38,5.3814,5.3808,5.3817,5.3814,5.3815,5.3827,5.3816,5.3824,5.3828,5.3813,5.3827,5.3822,5.3823,5.3821,5.3832,5.3815,5.3826,5.3828,5.3831,5.3835,5.3752,5.3832,5.3832,5.3832,5.3831,5.3831,0,5.3883,5.3877,5.3886,5.3886,5.3894,5.3872,5.3871,5.3878,5.389,5.3888,5.3893,5.3905,5.3914,5.3901,5.3907,5.3918,5.3907,5.392,5.3919,5.3918,5.385,5.3843,5.3929,5.3929,5.3929,5.3929,5.3929,5.3929,5.3926,5.3949,5.3939,5.3961,5.3955,5.3968,5.397,5.397,5.3968,5.3983,5.399,5.3982,5.3975,5.3981,5.3988,5.3984,5.3987,5.4003,5.3996,5.3932,5.3923,5.3913,5.3907,5.4005,5.4005,5.4063,5.4063,5.4064]}]]